Location: Seven Kings
(51.5667°N, 0.1000°E)
Time: 11:54:22
(UTC+00:00)

Cosmos 2297 Rocket - Pass Details

Date: 29 October 2020
Orbit: 838 x 845 km, 71.0° (Epoch: 24 November)

Event Time Altitude Azimuth Distance (km) Brightness Sun altitude
Rises 17:28:48 0° 329° (NNW) 3,416 5.6 -8.5°
Reaches altitude 10° 17:31:16 10° 329° (NNW) 2,477 4.9 -8.9°
Maximum altitude 17:36:58 88° 239° (WSW) 853 2.3 -9.8°
Drops below altitude 10° 17:42:38 10° 153° (SSE) 2,460 4.4 -10.7°
Sets 17:45:04 0° 153° (SSE) 3,390 5.1 -11.0°
